Weather History for EGHE - December, 2012

Change the Weather History Date:

Tuesday, December 4, 2012

  Actual Average Record
Temperature  
Mean Temperature 44 °F -  
Max Temperature 48 °F 48 °F 57 °F (2007)
Min Temperature 41 °F 46 °F 41 °F (1997)
Degree Days  
Heating Degree Days 20    
Moisture  
Dew Point 39 °F    
Average Humidity 74    
Maximum Humidity 87    
Minimum Humidity 60    
Precipitation  
Precipitation 0.12 in - - ()
Sea Level Pressure  
Sea Level Pressure 29.86 in    
Wind  
Wind Speed 24 mph ()    
Max Wind Speed 31 mph    
Max Gust Speed 48 mph    
Visibility 9.0 miles    
Events Rain    
Averages and records for this station are not official NWS values.
T = Trace of Precipitation, MM = Missing Value Source: Averaged Metar Reports

Daily Weather History Graph

Daily Weather History Graph

Search for Another Location

Airport or City:

Trip Planner

Search our weather history database for the weather conditions in past years. The results will help you decide how hot, cold, wet, or windy it might be!

Date:

Astronomy

Dec. 04, 2012 Rise Set
Actual Time 8:05 AM GMT 4:25 PM GMT
Civil Twilight 7:28 AM GMT 5:02 PM GMT
Nautical Twilight 6:47 AM GMT 5:43 PM GMT
Astronomical Twilight 6:08 AM GMT 6:22 PM GMT
Moon 10:19 PM GMT (12/4) 11:33 AM GMT (12/4)
Length of Visible Light 9h 34m
Length of Day
8h 19m
Waning Gibbous, 71% of the Moon is Illuminated
Dec 4
Waning Gibbous
Dec 6
Last Quarter
Dec 13
New
Dec 20
First Quarter
Dec 28
Full

Hourly Weather History & Observations

Time (GMT) Temp. Windchill Dew Point Humidity Pressure Visibility Wind Dir Wind Speed Gust Speed Precip Events Conditions
2:50 AM 47 °F - 39 °F 67% 29.88 in 22 mi NW 31.1 mph - - Rain Rain
5:50 AM 47 °F - 38 °F 60% 29.90 in 19 mi NW 26.5 mph - -   Partly Cloudy
8:20 AM 41.0 °F 30.7 °F 37.4 °F 87% 29.92 in 6.2 mi NW 25.3 mph 48.3 mph N/A   Scattered Clouds
8:50 AM 44.6 °F 35.1 °F 39.2 °F 81% 29.92 in 6.2 mi WNW 27.6 mph 42.6 mph N/A   Partly Cloudy
9:20 AM 46.4 °F 37.5 °F 37.4 °F 71% 29.92 in 6.2 mi WNW 27.6 mph 39.1 mph N/A   Scattered Clouds
9:50 AM 46.4 °F 37.5 °F 39.2 °F 76% 29.92 in 6.2 mi WNW 27.6 mph - N/A   Partly Cloudy
10:20 AM 44.6 °F 34.9 °F 37.4 °F 76% 29.89 in 6.2 mi WNW 28.8 mph 41.4 mph N/A   Scattered Clouds
10:50 AM 46.4 °F 37.4 °F 39.2 °F 76% 29.89 in 6.2 mi WNW 28.8 mph - N/A   Partly Cloudy
11:20 AM 48.2 °F - 37.4 °F 66% 29.89 in 6.2 mi NW 25.3 mph 36.8 mph N/A   Scattered Clouds
11:50 AM 47 °F - 38 °F 61% 29.89 in 19 mi WNW 25.3 mph - -   Partly Cloudy
11:50 AM 46.4 °F 37.9 °F 37.4 °F 71% 29.89 in 6.2 mi WNW 25.3 mph 36.8 mph N/A   Partly Cloudy
12:20 PM 46.4 °F 37.9 °F 37.4 °F 71% 29.89 in 6.2 mi WNW 25.3 mph 36.8 mph N/A   Partly Cloudy
1:50 PM 46.4 °F 37.7 °F 37.4 °F 71% 29.86 in 6.2 mi WNW 26.5 mph - N/A   Partly Cloudy
2:20 PM 42.8 °F 33.3 °F 39.2 °F 87% 29.86 in 6.2 mi WNW 24.2 mph 40.3 mph N/A   Scattered Clouds
2:50 PM 45 °F - 38 °F 69% 29.84 in 17 mi WNW 29.9 mph - - Rain Rain
2:50 PM 46.4 °F 37.5 °F 39.2 °F 76% 29.83 in 6.2 mi WNW 27.6 mph 39.1 mph N/A   Scattered Clouds
3:20 PM 44.6 °F 36.4 °F 39.2 °F 81% 29.83 in 6.2 mi West 20.7 mph 33.4 mph N/A   Scattered Clouds
3:50 PM 44.6 °F 36.4 °F 39.2 °F 81% 29.83 in 6.2 mi West 20.7 mph 32.2 mph N/A   Scattered Clouds
4:20 PM 46.4 °F 39.0 °F 41.0 °F 81% 29.80 in 6.2 mi WNW 19.6 mph 31.1 mph N/A   Scattered Clouds
4:50 PM 46.4 °F 38.1 °F 39.2 °F 76% 29.80 in 6.2 mi WNW 24.2 mph 35.7 mph N/A   Partly Cloudy
5:50 PM 46 °F - 39 °F 69% 29.80 in 16 mi WNW 27.6 mph - -   Scattered Clouds
8:50 PM 48 °F - 42 °F 74% 29.74 in 14 mi WNW 28.8 mph - - Rain Rain
11:50 PM 47 °F - 41 °F 72% 29.75 in 14 mi NW 23.0 mph - - Rain Light Rain Showers